This is the latest recevied weather packets stored in our database for station/object KF0EZB. If no packets are shown the sender has not sent any weather packets the latest 1 day(s).
| Time | Temp. | Humidity | Pressure | Rain* | Wind** | Luminosity | Snow |
|---|---|---|---|---|---|---|---|
| 1778027615 | 8.89° C | 70% | 1014.1 hPa | 0 mm | 0 m/s | 7 W/m² | - |
| 1778027312 | 8.89° C | 69% | 1013.9 hPa | 0 mm | 0 m/s | 6 W/m² | - |
| 1778027009 | 8.89° C | 68% | 1013.9 hPa | 0 mm | 0 m/s | 3 W/m² | - |
| 1778026704 | 8.89° C | 67% | 1013.7 hPa | 0 mm | 0 m/s | 7 W/m² | - |
| 1778026401 | 9.44° C | 67% | 1013.7 hPa | 0 mm | 0 m/s | 12 W/m² | - |
| 1778026098 | 9.44° C | 66% | 1013.5 hPa | 0 mm | 0.89 m/s, 35° | 12 W/m² | - |
| 1778025796 | 9.44° C | 65% | 1013 hPa | 0 mm | 0 m/s | 24 W/m² | - |
| 1778025492 | 9.44° C | 64% | 1013.1 hPa | 0 mm | 0 m/s | 29 W/m² | - |
| 1778025190 | 10° C | 61% | 1013 hPa | 0 mm | 0 m/s | 29 W/m² | - |
| 1778024887 | 10° C | 60% | 1012.8 hPa | 0 mm | 1.34 m/s, 56° | 26 W/m² | - |
| 1778024585 | 10° C | 61% | 1012.8 hPa | 0 mm | 0.45 m/s, 170° | 27 W/m² | - |
| 1778024282 | 10° C | 61% | 1012.7 hPa | 0 mm | 0 m/s | 31 W/m² | - |
| 1778023979 | 10° C | 61% | 1012.9 hPa | 0 mm | 0.89 m/s, 13° | 39 W/m² | - |
| 1778023676 | 10° C | 61% | 1012.5 hPa | 0 mm | 1.34 m/s, 49° | 46 W/m² | - |
| 1778023374 | 10° C | 61% | 1012.6 hPa | 0 mm | 0.45 m/s, 60° | 59 W/m² | - |
| 1778023070 | 10° C | 62% | 1012.5 hPa | 0 mm | 0.45 m/s, 79° | 63 W/m² | - |
| 1778022769 | 10° C | 61% | 1012.7 hPa | 0 mm | 0.45 m/s, 61° | 46 W/m² | - |
| 1778022467 | 10° C | 61% | 1012.5 hPa | 0 mm | 1.34 m/s, 59° | 52 W/m² | - |
| 1778022163 | 10° C | 61% | 1012.3 hPa | 0 mm | 1.34 m/s, 119° | 78 W/m² | - |
| 1778021860 | 10° C | 64% | 1012 hPa | 0 mm | 0 m/s | 99 W/m² | - |
| 1778021557 | 10.56° C | 62% | 1012.4 hPa | 0 mm | 1.79 m/s, 45° | 71 W/m² | - |
| 1778021252 | 10.56° C | 58% | 1012.2 hPa | 0 mm | 1.79 m/s, 48° | 71 W/m² | - |
| 1778020950 | 11.11° C | 57% | 1012.2 hPa | 0 mm | 1.34 m/s, 44° | 66 W/m² | - |
| 1778020647 | 11.11° C | 57% | 1012.4 hPa | 0 mm | 1.79 m/s, 47° | 65 W/m² | - |
| 1778020344 | 11.11° C | 57% | 1012.3 hPa | 0 mm | 2.68 m/s, 114° | 70 W/m² | - |
* Rain latest hour (hover to see other rain measurements)
** Current wind speed in m/s (hover to see current wind gust speed)